Location: 81360 Arifat, France
(43.7204°N, 2.3408°E)
Time: 21:22:14
(UTC+02:00)

X-37B - Pass Details

Date: 30 September 2021
Orbit: 445 x 447 km, 45.0° (Epoch: 24 October)

Event Time Altitude Azimuth Distance (km) Brightness Sun altitude
Exits shadow 05:50:00 70° 39° (NE) 475 1.0 -21.7°
Drops below altitude 10° 05:53:20 10° 92° (E) 1,564 4.7 -21.1°
Enters shadow 06:48:30 -72° 288° (WNW) 12,566 8.1 -11.4°
